Temp
71 72 73 75 75 75 76 76 77 77 77 77 78 78 78 78 77 76 76 75 75 75 75 74 74 74 74 75 75 75 76 76 76 76 76 76 76 76 76 77 77 76 77 77 77 77 78 78 79 79 79 79 79 78 78 78 79 80 80 79 79 79 79
70 72 73 74 74 75 76 76 77 77 77 78 78 78 78 78 77 76 76 76 76 76 75 75 75 75 75 75 75 75 75 75 76 77 77 76 77 76 77 77 77 77 76 77 78 78 78 79 79 78 79 79 80 79 79 79 79 79 79 79 79 78 79
68 71 72 73 73 74 75 76 77 77 77 78 78 78 78 77 77 76 76 76 75 76 76 76 76 76 75 75 75 75 76 75 75 76 76 77 77 78 78 77 77 78 78 78 77 78 79 79 78 78 79 79 80 79 79 79 79 79 79 78 79 80 78
67 69 71 72 72 73 75 75 76 77 78 78 79 79 78 77 78 77 77 77 76 76 75 77 77 77 76 75 75 75 75 76 76 77 78 78 78 78 77 77 77 78 78 78 79 79 81 80 79 78 80 79 79 79 79 79 80 79 79 79 78 79 78
66 68 69 69 71 71 72 73 74 75 76 78 78 79 79 79 79 78 78 78 78 77 78 78 79 79 78 77 78 77 77 77 76 77 78 78 78 78 78 78 78 78 78 79 79 79 79 79 79 79 78 78 79 79 79 79 80 79 79 79 78 78 79
64 66 67 67 67 68 68 69 69 68 68 68 70 74 78 79 80 79 79 79 78 78 78 78 79 78 78 78 79 79 78 77 77 77 77 77 77 78 78 78 79 79 79 79 80 79 79 79 80 80 80 80 80 80 80 80 80 80 79 78 78 79 79
63 65 66 65 67 68 70 69 70 70 70 71 72 74 76 77 79 79 79 79 78 77 78 78 79 78 78 78 78 78 78 78 77 77 78 78 78 78 78 79 79 80 80 80 79 80 80 79 79 79 80 80 80 80 79 78 79 78 77 77 76 76 77
64 63 65 66 67 68 68 69 70 71 72 72 74 74 75 76 77 78 79 79 79 80 78 78 78 77 77 78 78 78 79 78 78 78 78 78 78 78 78 79 79 79 80 80 80 80 81 80 81 80 79 79 79 79 79 77 77 77 76 76 75 76 78
63 64 64 65 67 68 68 69 70 70 70 70 71 74 74 76 76 77 77 77 78 78 78 79 78 78 77 77 77 77 79 79 78 78 78 78 79 79 80 80 79 80 80 80 81 81 81 81 79 77 77 78 77 76 77 76 76 75 75 75 75 76 77
62 63 64 65 66 67 68 69 69 70 71 70 70 71 72 74 75 76 77 77 77 77 77 78 77 78 77 77 78 78 78 78 78 78 78 78 79 79 80 81 80 80 80 81 82 81 81 79 78 76 76 76 76 75 76 75 75 75 75 75 76 76 75
62 62 63 64 64 65 67 67 68 68 70 71 71 71 71 73 74 75 76 77 77 77 78 78 78 77 77 77 77 78 77 78 78 78 77 78 79 80 81 81 81 81 81 81 81 82 79 76 77 76 75 75 75 75 75 75 75 75 75 75 76 76 76
61 61 62 62 63 65 65 67 67 68 69 69 71 72 71 71 73 74 75 76 77 77 77 77 78 78 77 77 77 77 77 78 78 78 78 78 78 79 81 82 82 82 82 82 81 81 79 76 76 76 75 75 76 76 76 75 75 75 75 75 75 75 76
61 61 61 62 63 64 65 66 67 68 68 69 69 70 71 71 72 73 73 75 77 78 78 77 77 77 76 76 77 77 77 78 78 79 79 78 78 79 80 81 82 82 82 82 82 81 78 78 76 76 76 76 76 76 76 75 75 74 74 75 75 76 76
62 61 62 62 63 63 64 65 66 67 68 68 69 69 70 71 71 72 72 74 75 76 78 78 78 76 76 77 76 76 77 78 78 78 78 78 78 78 79 80 81 82 82 82 81 81 79 79 77 78 78 77 76 76 76 75 75 74 74 75 76 76 76
59 61 63 63 63 64 64 65 65 66 67 67 68 69 69 69 70 71 72 73 73 75 76 77 77 77 77 76 76 76 76 77 77 78 78 78 77 77 77 78 80 81 81 81 81 83 81 80 80 79 77 77 76 76 76 75 75 76 76 76 76 76 77
61 63 63 64 64 64 64 65 66 66 67 67 68 69 69 69 69 70 71 72 72 73 75 76 76 76 76 76 76 76 77 77 77 77 77 77 77 76 77 78 79 80 80 81 81 80 80 79 79 80 79 77 76 76 76 76 77 77 77 77 77 76 77
61 63 64 65 64 64 64 65 66 66 66 66 67 68 69 69 70 70 71 71 72 73 74 75 75 76 76 76 76 77 77 76 76 77 76 76 76 77 77 77 78 78 78 79 80 79 78 79 79 78 79 78 77 76 76 77 78 75 70 70 74 78 77
59 60 62 64 64 64 64 64 65 65 65 66 67 68 68 69 69 70 70 71 71 72 73 73 74 75 75 76 76 76 76 76 76 76 76 76 76 76 77 77 77 77 77 78 79 77 79 78 78 77 78 78 78 76 76 76 68 64 67 69 69 73 76
59 60 61 63 63 64 64 64 64 65 65 66 67 68 68 69 69 69 70 70 71 72 72 72 73 74 75 75 75 76 76 75 75 75 76 76 76 77 77 76 76 76 76 77 79 79 77 76 77 77 77 77 75 75 73 70 65 63 65 66 66 68 73
62 62 62 62 63 63 63 63 64 65 65 65 66 68 69 70 69 70 70 71 71 71 71 71 72 73 74 75 75 75 75 75 75 75 75 76 76 76 76 76 76 77 77 78 77 77 76 76 75 74 74 74 72 68 68 67 63 61 63 64 65 67 71
62 62 63 63 62 63 64 64 64 64 64 65 66 67 68 68 69 70 70 71 71 71 71 71 71 71 72 74 74 74 74 74 74 75 75 75 75 75 75 75 75 76 76 76 75 74 73 73 71 69 68 67 67 67 65 64 60 60 62 61 63 66 73
61 62 63 63 63 64 64 65 65 65 65 66 66 67 67 67 68 68 69 71 70 70 71 71 71 71 72 72 73 73 74 74 74 74 74 73 73 74 74 74 75 74 73 71 69 68 67 66 66 65 64 64 64 63 63 63 58 58 59 60 61 68 74
61 63 64 64 65 65 66 65 65 66 66 66 66 65 65 66 66 66 67 68 69 70 70 70 70 70 71 72 72 73 73 73 72 70 69 69 69 71 73 73 72 71 71 68 67 65 64 63 63 63 63 63 62 61 61 61 59 57 57 59 61 69 73
64 65 65 65 66 66 66 65 65 65 65 64 64 65 65 65 65 64 64 65 67 69 69 70 69 70 71 71 72 72 71 71 71 71 70 70 70 70 71 71 72 71 71 67 64 62 62 63 63 63 63 63 61 62 61 60 59 57 56 57 59 67 71
65 65 65 65 64 64 64 64 64 64 64 64 63 65 65 65 64 64 63 64 65 67 68 69 70 70 70 71 72 72 71 71 71 71 70 69 69 69 68 68 67 67 66 64 63 62 63 63 61 61 62 63 63 64 61 60 60 56 56 56 58 65 68
63 63 62 63 64 64 64 64 62 62 63 63 63 65 64 64 63 63 63 64 65 65 66 68 70 71 71 71 71 70 71 71 72 71 70 69 69 69 69 67 64 63 63 62 62 61 61 61 61 59 59 60 60 61 61 60 61 59 55 56 58 61 65
63 63 63 63 63 65 62 61 61 62 63 63 63 63 64 64 63 62 63 64 64 64 65 68 70 71 70 70 70 70 70 71 71 70 70 70 69 69 68 65 63 62 61 60 61 61 60 60 60 60 59 60 61 61 62 62 61 59 55 55 57 60 63
63 63 63 63 64 63 61 61 62 63 63 63 63 63 63 63 62 63 63 64 64 65 67 68 70 70 69 69 70 70 70 70 70 70 70 69 69 68 65 63 63 62 61 60 60 60 59 59 59 58 59 60 61 62 62 65 64 61 58 55 55 57 61
60 60 59 59 59 62 63 61 61 62 62 62 63 63 62 62 61 63 65 65 66 68 68 68 69 69 69 69 69 69 69 69 70 70 70 69 69 66 62 62 62 62 62 60 59 58 58 58 59 59 59 59 60 61 61 62 64 64 61 58 56 56 58
59 58 59 59 60 61 63 61 61 61 62 62 62 62 62 62 61 64 65 65 67 68 68 69 69 69 68 68 68 69 68 68 69 69 69 68 66 64 62 61 62 61 60 59 59 58 58 59 59 59 58 57 57 59 60 61 62 65 64 61 57 56 56
57 57 58 58 58 61 62 61 60 61 61 62 62 62 62 62 61 63 63 64 67 68 68 68 68 68 67 67 67 68 68 67 66 66 66 65 64 62 62 61 61 59 59 59 59 58 58 58 59 57 57 57 57 57 58 59 59 61 64 64 61 58 57
56 56 57 57 58 60 61 61 61 61 60 61 62 62 62 61 62 61 61 64 65 66 66 66 66 66 66 66 66 66 65 64 63 63 63 63 63 63 62 61 60 59 59 59 58 58 58 58 58 57 57 57 57 57 57 57 57 56 59 63 65 62 59
56 56 56 56 58 59 59 60 60 60 60 59 61 62 62 61 61 62 63 63 63 64 64 64 64 63 64 64 64 64 64 62 62 62 62 62 62 62 62 61 60 60 60 60 59 59 59 59 59 58 58 58 57 57 58 58 57 58 58 58 59 59 60
55 55 56 56 58 59 59 60 59 59 59 59 60 61 61 61 61 61 62 63 63 63 63 63 63 61 61 62 62 62 63 62 64 63 61 61 62 61 61 62 62 61 60 60 59 57 57 58 59 59 59 57 58 58 58 58 57 56 54 55 55 55 56
55 55 56 57 58 59 59 60 60 59 59 59 60 61 61 61 61 61 61 62 62 63 62 61 62 61 61 61 60 60 61 59 58 58 57 55 54 55 57 59 60 59 59 60 60 60 59 58 58 59 59 60 59 58 58 58 58 55 50 50 49 52 55
56 56 57 58 59 60 61 61 60 60 60 59 60 61 61 61 61 61 62 62 62 63 62 62 61 60 59 60 59 60 59 59 58 58 57 56 55 54 52 53 51 55 59 57 60 56 55 55 59 60 60 57 54 56 59 58 55 48 42 41 42 42 45
56 57 58 59 58 59 60 61 61 61 60 60 61 61 62 61 61 61 61 61 61 63 62 61 60 60 59 60 59 59 59 58 57 57 57 57 57 56 55 52 51 46 49 54 54 50 46 46 48 51 55 59 56 51 49 48 44 42 43 44 43 43 43
54 55 58 59 58 59 60 60 60 60 60 60 61 62 63 63 62 62 63 62 62 63 62 62 61 59 58 58 58 59 59 57 58 57 57 56 56 56 55 53 52 51 46 45 47 46 43 42 42 43 44 47 53 59 56 49 44 43 43 43 43 43 43
MSLP
1012.91 1012.87 1012.63 1012.47 1012.67 1012.79 1012.87 1012.87 1012.99 1013.27 1013.39 1013.55 1013.67 1013.75 1013.95 1014.11 1014.35 1014.59 1014.91 1015.15 1015.39 1015.67 1015.71 1015.79 1015.95 1016.11 1016.27 1016.35 1016.43 1016.51 1016.63 1016.79 1016.95 1017.15 1017.35 1017.43 1017.43 1017.59 1017.79 1017.83 1017.99 1018.03 1018.07 1018.23 1018.19 1018.19 1018.03 1017.95 1018.07 1018.07 1018.11 1018.19 1018.27 1018.31 1018.31 1018.31 1018.35 1018.31 1018.31 1018.35 1018.43 1018.55 1018.63
1013.03 1012.75 1012.55 1012.31 1012.35 1012.47 1012.51 1012.51 1012.71 1012.95 1013.15 1013.27 1013.39 1013.55 1013.71 1013.91 1014.11 1014.47 1014.63 1014.79 1014.99 1015.19 1015.43 1015.59 1015.75 1015.91 1016.03 1016.15 1016.23 1016.39 1016.59 1016.71 1016.79 1016.87 1017.03 1017.23 1017.27 1017.35 1017.39 1017.55 1017.67 1017.79 1017.83 1017.83 1017.83 1017.83 1017.87 1017.87 1017.91 1017.99 1018.07 1018.03 1018.07 1018.03 1018.11 1018.11 1018.15 1018.19 1018.27 1018.31 1018.47 1018.55 1018.55
1013.07 1012.79 1012.63 1012.47 1012.43 1012.43 1012.43 1012.51 1012.55 1012.63 1012.79 1013.03 1013.15 1013.39 1013.55 1013.63 1013.75 1013.99 1014.31 1014.63 1014.87 1014.99 1015.11 1015.31 1015.43 1015.59 1015.79 1015.99 1016.23 1016.31 1016.39 1016.59 1016.75 1016.83 1017.03 1017.15 1017.23 1017.23 1017.23 1017.35 1017.47 1017.55 1017.55 1017.55 1017.63 1017.71 1017.63 1017.75 1017.75 1017.79 1017.87 1017.95 1017.91 1017.91 1017.87 1017.95 1017.95 1017.99 1018.03 1018.11 1018.27 1018.39 1018.43
1013.11 1012.87 1012.55 1012.39 1012.39 1012.35 1012.39 1012.39 1012.43 1012.47 1012.51 1012.59 1012.79 1012.95 1013.19 1013.31 1013.31 1013.55 1013.83 1014.11 1014.51 1014.79 1015.07 1015.07 1015.19 1015.39 1015.55 1015.83 1016.03 1016.19 1016.35 1016.43 1016.47 1016.59 1016.71 1016.83 1016.99 1016.99 1017.19 1017.31 1017.39 1017.43 1017.59 1017.63 1017.47 1017.43 1017.43 1017.51 1017.63 1017.67 1017.67 1017.75 1017.75 1017.67 1017.71 1017.71 1017.67 1017.71 1017.75 1017.87 1018.03 1018.07 1018.11
1012.95 1012.75 1012.63 1012.55 1012.55 1012.63 1012.75 1012.87 1013.03 1012.95 1012.99 1012.83 1012.83 1012.63 1012.71 1012.87 1013.11 1013.43 1013.67 1013.79 1014.03 1014.35 1014.35 1014.51 1014.71 1014.91 1015.15 1015.39 1015.67 1015.87 1016.03 1016.19 1016.35 1016.39 1016.51 1016.59 1016.67 1016.83 1017.11 1017.23 1017.27 1017.35 1017.31 1017.31 1017.31 1017.39 1017.43 1017.47 1017.51 1017.51 1017.55 1017.51 1017.55 1017.55 1017.55 1017.47 1017.55 1017.55 1017.71 1017.83 1018.07 1018.07 1018.15
1013.11 1012.79 1012.71 1012.67 1012.55 1012.43 1012.43 1012.95 1013.59 1013.99 1014.15 1014.51 1014.75 1014.23 1013.71 1013.27 1013.15 1013.39 1013.43 1013.67 1013.91 1013.99 1014.15 1014.39 1014.63 1014.75 1015.07 1015.11 1015.31 1015.51 1015.71 1015.87 1015.99 1016.11 1016.27 1016.43 1016.59 1016.83 1016.95 1016.99 1017.11 1017.19 1017.27 1017.23 1017.11 1017.15 1017.15 1017.27 1017.27 1017.31 1017.35 1017.31 1017.35 1017.39 1017.35 1017.47 1017.59 1017.67 1017.79 1017.87 1017.95 1017.99 1018.11
1013.43 1013.19 1012.87 1012.43 1012.27 1012.47 1012.63 1012.83 1012.87 1012.83 1012.75 1012.91 1013.07 1013.23 1013.51 1013.71 1013.55 1013.19 1013.23 1013.51 1013.59 1013.99 1014.15 1014.35 1014.35 1014.51 1014.67 1014.83 1015.07 1015.27 1015.55 1015.67 1015.83 1015.99 1016.03 1016.23 1016.35 1016.59 1016.71 1016.79 1016.83 1016.91 1016.87 1016.87 1017.03 1016.91 1017.07 1017.11 1017.07 1017.07 1017.07 1017.11 1017.15 1017.23 1017.31 1017.43 1017.51 1017.47 1017.59 1017.75 1017.87 1017.87 1017.91
1013.67 1013.43 1013.11 1012.75 1012.47 1012.59 1012.63 1012.83 1012.75 1012.59 1012.55 1012.71 1012.87 1012.99 1013.03 1013.03 1013.39 1013.55 1013.47 1013.19 1013.35 1013.59 1013.87 1014.03 1014.19 1014.27 1014.39 1014.55 1014.71 1014.99 1015.15 1015.31 1015.43 1015.63 1015.87 1016.07 1016.23 1016.43 1016.51 1016.63 1016.67 1016.67 1016.71 1016.87 1016.71 1016.67 1016.83 1016.83 1016.79 1016.83 1016.91 1017.03 1017.11 1017.11 1017.15 1017.19 1017.19 1017.23 1017.31 1017.51 1017.55 1017.55 1017.55
1013.35 1013.27 1013.23 1013.11 1013.07 1012.91 1012.59 1012.35 1012.43 1012.47 1012.55 1012.95 1013.03 1012.99 1013.03 1012.87 1012.87 1013.19 1013.35 1013.39 1013.31 1013.47 1013.55 1013.55 1013.67 1013.79 1013.99 1014.31 1014.55 1014.71 1014.79 1014.95 1015.23 1015.43 1015.71 1015.95 1016.03 1016.19 1016.27 1016.31 1016.39 1016.39 1016.63 1016.63 1016.55 1016.47 1016.51 1016.55 1016.63 1016.79 1016.87 1016.99 1017.07 1017.07 1017.07 1017.03 1017.03 1017.07 1017.15 1017.27 1017.43 1017.55 1017.59
1013.47 1013.15 1013.11 1013.03 1012.91 1012.91 1012.95 1012.99 1012.59 1012.39 1012.51 1012.79 1012.83 1012.91 1012.95 1012.79 1012.59 1012.55 1012.87 1013.19 1013.39 1013.43 1013.27 1013.35 1013.47 1013.67 1013.91 1014.11 1014.31 1014.39 1014.63 1014.87 1014.99 1015.27 1015.47 1015.75 1015.75 1015.91 1015.91 1015.95 1016.07 1016.07 1016.27 1016.27 1016.31 1016.39 1016.27 1016.27 1016.51 1016.67 1016.83 1016.87 1016.83 1016.79 1016.83 1016.91 1016.95 1017.03 1017.15 1017.31 1017.43 1017.59 1017.63
1013.87 1013.51 1013.31 1013.19 1013.07 1012.99 1012.95 1012.99 1013.15 1012.95 1012.39 1012.19 1012.39 1012.51 1012.55 1012.59 1012.51 1012.43 1012.43 1012.59 1013.03 1013.07 1012.99 1013.15 1013.19 1013.51 1013.71 1013.91 1014.15 1014.31 1014.51 1014.67 1014.79 1015.07 1015.23 1015.39 1015.43 1015.51 1015.51 1015.63 1015.71 1015.79 1015.91 1016.03 1016.15 1016.07 1016.15 1016.31 1016.31 1016.55 1016.67 1016.71 1016.71 1016.79 1016.83 1016.75 1016.71 1016.83 1017.03 1017.15 1017.23 1017.35 1017.39
1013.99 1013.79 1013.63 1013.39 1013.11 1012.91 1012.91 1013.03 1013.07 1013.03 1013.07 1012.83 1012.23 1012.23 1012.43 1012.47 1012.39 1012.27 1012.19 1012.11 1012.07 1012.51 1012.83 1012.95 1013.03 1013.19 1013.47 1013.71 1014.03 1014.19 1014.35 1014.43 1014.63 1014.79 1014.91 1015.03 1015.11 1015.15 1015.15 1015.19 1015.35 1015.47 1015.51 1015.63 1015.83 1015.83 1015.91 1016.11 1016.23 1016.35 1016.47 1016.43 1016.47 1016.47 1016.39 1016.39 1016.51 1016.63 1016.75 1016.87 1017.03 1017.15 1017.19
1014.15 1013.95 1013.87 1013.67 1013.35 1013.19 1013.03 1012.95 1012.95 1012.95 1012.91 1012.83 1012.87 1012.79 1012.51 1012.31 1012.27 1012.23 1012.15 1012.07 1011.87 1011.83 1012.11 1012.47 1012.83 1013.03 1013.27 1013.47 1013.71 1013.95 1014.07 1014.19 1014.27 1014.31 1014.47 1014.59 1014.67 1014.71 1014.83 1014.91 1014.95 1015.11 1015.27 1015.27 1015.43 1015.63 1015.87 1015.91 1016.03 1016.07 1016.15 1016.19 1016.23 1016.27 1016.27 1016.27 1016.35 1016.51 1016.59 1016.71 1016.83 1016.95 1017.11
1014.23 1013.91 1013.79 1013.63 1013.39 1013.15 1013.07 1013.11 1013.03 1012.99 1012.91 1012.79 1012.63 1012.59 1012.67 1012.63 1012.47 1012.27 1012.15 1012.03 1011.75 1011.71 1011.83 1011.99 1012.35 1012.79 1013.11 1013.31 1013.55 1013.67 1013.75 1013.75 1013.71 1013.91 1014.03 1014.15 1014.31 1014.47 1014.55 1014.59 1014.71 1014.79 1014.83 1014.99 1015.23 1015.39 1015.55 1015.75 1015.87 1015.79 1015.91 1015.99 1016.03 1015.99 1016.07 1016.27 1016.39 1016.43 1016.51 1016.59 1016.71 1016.83 1016.95
1014.39 1014.23 1013.99 1013.87 1013.67 1013.47 1013.19 1012.87 1012.87 1012.83 1012.71 1012.67 1012.63 1012.59 1012.55 1012.55 1012.47 1012.31 1012.19 1012.03 1011.83 1011.67 1011.67 1011.67 1011.99 1012.35 1012.75 1013.07 1013.31 1013.31 1013.19 1013.31 1013.43 1013.51 1013.75 1013.95 1014.19 1014.35 1014.47 1014.47 1014.47 1014.47 1014.59 1014.75 1014.91 1014.95 1015.15 1015.27 1015.43 1015.67 1015.87 1015.87 1015.91 1015.99 1016.03 1016.19 1016.23 1016.23 1016.35 1016.51 1016.63 1016.67 1016.79
1014.63 1014.39 1014.19 1014.03 1013.83 1013.59 1013.31 1013.07 1012.79 1012.63 1012.55 1012.51 1012.47 1012.43 1012.31 1012.27 1012.27 1012.23 1012.15 1012.03 1011.87 1011.71 1011.51 1011.55 1011.79 1012.03 1012.31 1012.67 1012.83 1012.83 1012.83 1012.99 1013.15 1013.35 1013.55 1013.87 1014.07 1014.15 1014.19 1014.23 1014.27 1014.35 1014.51 1014.59 1014.67 1014.75 1014.91 1015.07 1015.19 1015.39 1015.55 1015.75 1015.83 1015.91 1015.99 1016.03 1015.91 1015.91 1016.03 1016.11 1016.31 1016.55 1016.67
1014.71 1014.51 1014.15 1013.87 1013.83 1013.63 1013.31 1013.07 1012.79 1012.59 1012.55 1012.43 1012.39 1012.35 1012.31 1012.15 1011.95 1011.95 1011.95 1011.83 1011.79 1011.71 1011.47 1011.47 1011.67 1011.79 1011.95 1012.11 1012.15 1012.39 1012.59 1012.83 1012.99 1013.15 1013.47 1013.55 1013.75 1013.91 1014.07 1014.19 1014.23 1014.35 1014.47 1014.55 1014.63 1014.75 1014.79 1014.87 1015.11 1015.27 1015.31 1015.47 1015.63 1015.79 1015.83 1015.83 1015.87 1015.91 1015.99 1016.11 1016.19 1016.31 1016.59
1014.67 1014.39 1014.07 1013.95 1013.83 1013.67 1013.47 1013.19 1012.95 1012.79 1012.67 1012.47 1012.35 1012.27 1012.19 1012.15 1012.03 1011.91 1011.79 1011.59 1011.63 1011.55 1011.43 1011.51 1011.51 1011.63 1011.71 1011.67 1011.71 1011.95 1012.31 1012.55 1012.75 1013.03 1013.19 1013.35 1013.59 1013.71 1013.83 1013.99 1014.23 1014.39 1014.43 1014.51 1014.59 1014.63 1014.67 1014.87 1014.95 1015.03 1015.19 1015.31 1015.47 1015.67 1015.83 1015.95 1016.11 1016.07 1016.11 1016.19 1016.27 1016.39 1016.51
1014.31 1014.07 1013.99 1013.91 1013.75 1013.63 1013.43 1013.19 1013.03 1012.79 1012.59 1012.43 1012.27 1012.19 1012.03 1011.91 1011.87 1011.83 1011.63 1011.51 1011.19 1011.23 1011.39 1011.43 1011.43 1011.39 1011.43 1011.43 1011.59 1011.67 1011.83 1012.19 1012.55 1012.79 1012.99 1013.11 1013.23 1013.39 1013.67 1013.95 1014.19 1014.31 1014.35 1014.39 1014.27 1014.39 1014.71 1014.79 1014.87 1014.99 1015.11 1015.31 1015.59 1015.79 1015.87 1016.15 1016.35 1016.35 1016.31 1016.35 1016.43 1016.51 1016.47
1014.15 1014.03 1014.03 1013.87 1013.71 1013.51 1013.27 1013.03 1012.79 1012.55 1012.39 1012.31 1012.15 1011.99 1011.75 1011.63 1011.63 1011.43 1011.15 1011.11 1011.11 1011.19 1011.15 1011.19 1011.23 1011.23 1011.23 1011.27 1011.39 1011.43 1011.55 1011.79 1012.23 1012.59 1012.71 1012.75 1012.95 1013.19 1013.55 1013.83 1013.99 1013.99 1013.95 1013.99 1014.15 1014.43 1014.67 1014.83 1014.99 1015.03 1015.19 1015.35 1015.59 1015.99 1016.27 1016.47 1016.63 1016.47 1016.39 1016.39 1016.43 1016.39 1016.23
1014.35 1014.11 1013.87 1013.59 1013.39 1013.23 1013.07 1012.95 1012.75 1012.51 1012.39 1012.19 1012.03 1011.87 1011.75 1011.59 1011.39 1011.23 1011.11 1010.99 1011.07 1011.07 1011.15 1011.07 1011.07 1011.07 1010.99 1011.07 1011.03 1011.19 1011.39 1011.59 1011.87 1012.23 1012.51 1012.67 1012.83 1013.03 1013.31 1013.47 1013.63 1013.83 1013.91 1014.11 1014.31 1014.51 1014.67 1014.75 1015.03 1015.39 1015.55 1015.67 1015.83 1016.15 1016.59 1016.95 1016.87 1016.59 1016.43 1016.27 1016.19 1016.19 1015.99
1014.23 1014.11 1013.87 1013.55 1013.43 1013.15 1012.95 1012.83 1012.67 1012.47 1012.31 1012.07 1011.99 1011.91 1011.83 1011.75 1011.43 1011.39 1011.23 1010.91 1010.91 1010.91 1010.95 1010.95 1010.99 1010.87 1010.83 1010.87 1010.83 1010.99 1011.15 1011.43 1011.71 1012.03 1012.63 1013.23 1013.63 1013.59 1013.31 1013.27 1013.39 1013.71 1013.91 1014.19 1014.47 1014.67 1014.87 1015.19 1015.31 1015.51 1015.67 1015.99 1016.19 1016.43 1016.83 1017.11 1017.03 1016.79 1016.59 1016.35 1016.11 1015.87 1015.83
1013.95 1013.79 1013.63 1013.35 1013.23 1013.07 1012.79 1012.59 1012.51 1012.35 1012.19 1012.15 1012.11 1012.11 1012.03 1011.83 1011.67 1011.55 1011.31 1011.19 1010.95 1010.83 1010.75 1010.83 1010.91 1010.83 1010.71 1010.67 1010.67 1010.79 1010.95 1011.15 1011.43 1011.71 1011.87 1012.47 1013.43 1014.15 1014.03 1013.51 1013.43 1013.63 1013.79 1014.27 1014.67 1014.95 1015.23 1015.55 1015.75 1015.95 1016.03 1016.27 1016.43 1016.59 1017.07 1017.19 1017.27 1016.95 1016.67 1016.47 1016.27 1016.03 1016.03
1013.75 1013.63 1013.43 1013.31 1013.03 1012.83 1012.59 1012.39 1012.35 1012.35 1012.35 1012.27 1012.19 1012.11 1011.95 1011.83 1011.75 1011.59 1011.43 1011.23 1010.99 1010.83 1010.67 1010.59 1010.59 1010.59 1010.67 1010.55 1010.39 1010.51 1010.67 1010.79 1010.99 1011.43 1011.59 1011.59 1011.95 1012.71 1013.51 1013.75 1013.59 1013.51 1013.47 1013.87 1014.59 1015.07 1015.47 1015.67 1016.07 1016.35 1016.43 1016.59 1016.87 1016.91 1016.99 1017.39 1017.39 1017.03 1016.71 1016.55 1016.43 1016.31 1016.35
1013.59 1013.51 1013.39 1013.23 1013.11 1012.87 1012.55 1012.59 1012.55 1012.43 1012.31 1012.23 1012.15 1011.83 1011.71 1011.63 1011.59 1011.51 1011.31 1011.03 1010.87 1010.75 1010.59 1010.39 1010.27 1010.27 1010.31 1010.35 1010.35 1010.35 1010.31 1010.35 1010.59 1011.03 1011.59 1012.15 1012.51 1012.67 1012.99 1013.31 1013.79 1014.03 1014.15 1014.47 1014.83 1015.31 1015.59 1015.75 1016.11 1016.55 1016.79 1016.91 1017.03 1017.11 1017.23 1017.43 1017.43 1017.23 1016.91 1016.67 1016.55 1016.51 1016.71
1013.79 1013.59 1013.39 1013.11 1012.79 1012.75 1012.79 1012.71 1012.63 1012.51 1012.43 1012.35 1012.15 1011.83 1011.63 1011.51 1011.39 1011.23 1011.03 1010.71 1010.59 1010.59 1010.31 1010.03 1009.87 1009.75 1009.75 1009.75 1009.83 1009.95 1010.07 1010.07 1010.31 1010.71 1011.23 1011.71 1011.99 1012.39 1012.99 1013.47 1013.75 1013.99 1014.31 1014.79 1015.07 1015.47 1015.75 1015.95 1016.31 1016.75 1017.19 1017.31 1017.35 1017.47 1017.47 1017.51 1017.59 1017.51 1017.19 1016.99 1016.83 1016.75 1017.07
1013.35 1013.11 1013.11 1013.15 1013.15 1012.87 1012.95 1012.87 1012.83 1012.67 1012.47 1012.23 1011.99 1011.79 1011.63 1011.47 1011.35 1011.07 1010.63 1010.35 1010.27 1010.11 1009.91 1009.63 1009.43 1009.39 1009.43 1009.51 1009.59 1009.71 1009.95 1010.11 1010.19 1010.43 1010.59 1010.71 1011.11 1011.63 1012.43 1013.23 1013.79 1014.11 1014.23 1014.63 1015.03 1015.35 1015.75 1015.99 1016.31 1016.71 1017.11 1017.27 1017.39 1017.47 1017.47 1017.51 1017.63 1017.71 1017.51 1017.43 1017.31 1017.11 1017.19
1013.31 1013.23 1013.19 1013.23 1013.11 1013.07 1013.03 1012.91 1012.79 1012.55 1012.35 1012.11 1011.91 1011.71 1011.59 1011.43 1011.31 1010.95 1010.51 1010.15 1009.87 1009.43 1009.15 1009.11 1008.99 1009.03 1009.27 1009.39 1009.47 1009.55 1009.67 1009.83 1010.07 1010.07 1010.23 1010.59 1011.07 1011.63 1012.11 1012.63 1013.11 1013.63 1014.11 1014.55 1014.99 1015.47 1015.91 1016.19 1016.47 1016.83 1017.19 1017.39 1017.43 1017.43 1017.47 1017.47 1017.51 1017.75 1017.83 1017.79 1017.71 1017.63 1017.47
1013.59 1013.59 1013.59 1013.47 1013.31 1013.15 1013.03 1013.03 1012.91 1012.71 1012.51 1012.19 1011.91 1011.63 1011.39 1011.27 1011.03 1010.55 1009.99 1009.55 1009.03 1008.63 1008.55 1008.55 1008.59 1008.67 1008.87 1009.19 1009.39 1009.47 1009.63 1009.75 1009.91 1010.19 1010.35 1010.59 1010.79 1011.55 1012.51 1012.71 1012.91 1013.51 1013.95 1014.47 1015.03 1015.39 1015.95 1016.39 1016.63 1016.83 1017.11 1017.35 1017.51 1017.59 1017.63 1017.63 1017.67 1017.75 1017.91 1017.95 1017.91 1017.91 1017.91
1013.67 1013.63 1013.51 1013.43 1013.39 1013.35 1013.15 1013.11 1012.95 1012.79 1012.55 1012.27 1011.95 1011.63 1011.35 1011.15 1010.83 1010.23 1009.79 1009.39 1008.67 1008.31 1008.19 1008.23 1008.31 1008.39 1008.67 1008.99 1009.19 1009.35 1009.55 1009.71 1009.83 1010.07 1010.43 1010.75 1011.19 1011.71 1012.19 1012.67 1012.83 1013.23 1013.87 1014.35 1014.67 1015.15 1015.75 1016.31 1016.47 1016.75 1017.11 1017.51 1017.83 1017.91 1017.91 1017.87 1017.87 1017.95 1018.03 1018.15 1018.15 1018.15 1018.11
1013.75 1013.71 1013.63 1013.55 1013.55 1013.35 1013.23 1013.23 1013.11 1012.91 1012.67 1012.31 1011.99 1011.63 1011.35 1011.11 1010.83 1010.35 1009.99 1009.35 1008.59 1008.19 1008.11 1008.15 1008.27 1008.43 1008.63 1008.87 1009.07 1009.23 1009.43 1009.67 1009.87 1009.99 1010.27 1010.63 1011.03 1011.87 1012.35 1012.67 1012.91 1013.51 1013.99 1014.31 1014.59 1014.79 1015.51 1016.35 1016.67 1017.03 1017.39 1017.75 1018.11 1018.27 1018.27 1018.23 1018.31 1018.27 1018.27 1018.27 1018.27 1018.27 1018.27
1013.67 1013.63 1013.59 1013.63 1013.55 1013.35 1013.27 1013.15 1013.07 1012.99 1012.79 1012.43 1012.07 1011.79 1011.47 1011.23 1010.91 1010.63 1010.23 1009.47 1008.95 1008.59 1008.43 1008.39 1008.39 1008.47 1008.67 1008.91 1009.07 1009.15 1009.39 1009.95 1010.55 1010.95 1010.83 1011.19 1011.39 1011.71 1012.15 1012.47 1012.99 1013.39 1013.95 1014.15 1014.55 1015.03 1015.63 1016.43 1016.91 1017.39 1017.75 1018.07 1018.31 1018.39 1018.43 1018.51 1018.59 1018.71 1018.67 1018.47 1018.35 1018.35 1018.35
1013.75 1013.79 1013.83 1013.71 1013.59 1013.43 1013.31 1013.31 1013.23 1013.11 1012.91 1012.71 1012.31 1011.99 1011.71 1011.51 1011.11 1010.79 1010.31 1009.91 1009.47 1009.11 1008.95 1008.99 1009.11 1009.27 1009.35 1009.51 1009.71 1009.95 1009.79 1009.95 1010.43 1011.03 1011.51 1011.75 1011.91 1012.19 1012.71 1013.23 1013.51 1013.71 1014.15 1014.35 1014.79 1015.59 1016.23 1016.71 1017.07 1017.51 1017.99 1018.15 1018.35 1018.51 1018.63 1018.71 1018.79 1018.79 1018.75 1018.63 1018.47 1018.47 1018.43
1013.83 1013.87 1013.83 1013.75 1013.59 1013.47 1013.39 1013.35 1013.35 1013.31 1013.11 1012.95 1012.59 1012.27 1012.03 1011.79 1011.51 1011.15 1010.71 1010.31 1009.95 1009.59 1009.47 1009.75 1009.95 1010.03 1010.07 1010.19 1010.31 1010.55 1010.75 1010.59 1010.31 1010.59 1011.35 1012.15 1012.11 1012.31 1012.87 1013.31 1013.63 1014.23 1014.67 1014.87 1015.27 1015.75 1016.55 1017.07 1017.35 1017.59 1017.83 1018.11 1018.39 1018.63 1018.79 1018.83 1018.75 1018.71 1018.63 1018.63 1018.63 1018.71 1018.67
1013.91 1013.91 1013.87 1013.75 1013.67 1013.55 1013.59 1013.47 1013.47 1013.43 1013.27 1013.07 1012.79 1012.51 1012.27 1012.07 1011.87 1011.55 1011.19 1010.91 1010.55 1010.27 1010.15 1010.35 1010.55 1010.59 1010.71 1011.03 1011.15 1011.39 1011.47 1011.67 1011.79 1011.67 1012.07 1012.83 1013.27 1013.67 1013.75 1013.91 1014.35 1014.87 1015.43 1015.51 1015.59 1015.91 1016.63 1017.27 1017.43 1017.71 1018.03 1018.19 1018.35 1018.51 1018.63 1018.51 1018.43 1018.75 1019.35 1019.23 1019.19 1018.87 1018.67
1013.91 1013.87 1013.87 1013.83 1013.75 1013.67 1013.59 1013.55 1013.55 1013.55 1013.39 1013.19 1012.95 1012.75 1012.55 1012.43 1012.27 1011.99 1011.71 1011.43 1011.19 1010.91 1010.83 1010.99 1011.07 1011.31 1011.55 1011.63 1012.03 1012.27 1012.35 1012.39 1012.63 1012.87 1012.91 1013.19 1013.83 1014.35 1015.15 1015.47 1015.51 1015.71 1015.83 1016.07 1016.27 1016.59 1016.87 1016.87 1017.43 1017.95 1018.23 1018.59 1018.95 1018.91 1018.35 1018.39 1018.79 1019.39 1019.35 1019.15 1018.99 1018.91 1018.91
1013.83 1013.87 1013.87 1013.87 1013.87 1013.83 1013.79 1013.71 1013.59 1013.47 1013.47 1013.31 1013.07 1012.91 1012.79 1012.83 1012.71 1012.47 1012.23 1011.99 1011.79 1011.51 1011.43 1011.51 1011.83 1012.07 1012.31 1012.43 1012.67 1012.75 1012.83 1012.99 1013.31 1013.55 1013.63 1013.99 1014.59 1014.87 1015.11 1016.03 1016.55 1017.03 1016.95 1016.79 1016.99 1017.27 1017.47 1017.75 1018.11 1018.31 1018.39 1018.35 1018.75 1019.47 1019.51 1019.43 1019.43 1019.11 1018.79 1018.67 1018.71 1018.83 1018.87
1013.79 1013.83 1013.87 1013.91 1014.03 1013.99 1013.95 1013.87 1013.71 1013.63 1013.63 1013.47 1013.31 1013.11 1012.99 1013.03 1012.99 1012.91 1012.75 1012.51 1012.27 1012.11 1012.07 1012.11 1012.35 1012.71 1013.03 1013.19 1013.35 1013.43 1013.63 1013.79 1014.03 1014.35 1014.55 1014.91 1015.03 1015.11 1015.51 1016.07 1016.27 1017.31 1017.95 1018.07 1018.11 1018.43 1018.67 1018.83 1018.87 1018.87 1018.83 1018.79 1018.71 1018.67 1019.11 1019.27 1019.15 1018.95 1018.83 1018.79 1018.83 1018.87 1018.87
Wind_Speed
8 8 9 10 10 11 12 12 12 12 12 11 11 12 11 10 10 9 10 10 12 11 10 9 9 7 8 7 7 6 6 6 6 6 6 6 6 6 6 5 6 6 5 5 6 6 6 5 5 5 5 5 5 5 5 4 4 3 3 3 2 3 3
9 9 9 9 10 11 11 11 11 11 11 11 11 12 11 12 10 10 11 11 12 13 11 10 9 9 8 7 6 6 7 7 6 5 5 5 4 5 5 6 6 6 6 6 6 5 5 5 5 5 5 5 5 5 5 5 5 4 4 4 4 4 3
6 7 6 7 8 9 10 9 10 11 12 11 11 11 12 12 11 12 11 11 11 11 10 11 10 10 8 7 6 7 7 7 6 7 7 6 7 7 6 6 6 6 6 6 5 5 4 5 5 5 5 5 5 6 6 5 6 5 5 5 4 4 4
5 6 6 4 3 4 7 9 11 11 11 12 13 13 12 12 12 11 11 12 13 11 11 11 11 10 9 8 8 7 8 7 7 7 7 6 7 6 6 6 5 5 5 6 5 5 4 5 5 5 5 5 6 6 5 6 6 6 6 5 5 5 5
3 3 3 3 3 2 2 3 4 5 5 6 9 11 12 12 11 10 10 10 12 13 14 13 10 10 8 8 7 6 8 8 7 6 6 5 5 5 6 6 6 6 6 5 5 5 5 5 5 5 5 6 6 5 6 6 6 6 5 3 3 3 3
2 4 3 2 4 5 6 6 8 9 10 12 12 10 6 7 9 11 11 11 11 10 9 9 10 9 10 10 9 8 7 7 7 6 6 6 6 5 6 6 6 6 6 6 5 5 6 5 5 6 6 5 5 5 4 3 2 1 3 3 4 3 2
4 3 2 5 6 4 4 7 9 10 10 10 11 8 4 5 9 11 10 11 11 11 11 11 11 10 10 9 9 9 10 9 8 8 6 6 6 6 6 6 5 6 6 4 6 5 6 6 6 6 6 5 5 5 4 4 4 4 4 4 3 3 3
5 4 3 4 5 5 6 6 8 8 8 8 9 8 8 6 6 8 10 11 11 10 10 11 11 10 10 9 9 11 11 10 9 8 6 7 7 6 6 6 5 6 5 6 6 6 6 6 5 5 6 6 5 5 5 5 5 5 5 5 6 5 3
4 2 3 5 4 3 4 7 8 9 10 8 8 8 9 7 8 9 9 9 9 10 11 11 11 11 10 9 9 11 10 9 8 8 8 8 7 7 7 6 6 6 6 6 6 5 6 6 6 6 5 5 5 5 5 5 5 5 5 5 5 5 4
4 6 5 5 3 2 2 3 4 7 9 10 9 9 8 8 7 9 9 9 8 11 12 10 9 9 9 10 11 11 10 10 9 9 8 8 7 8 7 6 6 6 7 7 5 6 6 6 6 6 6 7 7 8 7 6 5 5 5 5 5 5 4
3 5 5 5 5 3 3 2 3 5 8 11 10 10 10 9 8 9 10 10 10 11 10 10 9 9 9 10 11 10 10 10 10 9 10 10 9 9 8 8 7 6 7 6 6 6 5 5 5 7 7 8 8 7 6 7 7 6 6 4 4 5 5
2 2 3 5 5 5 3 1 1 2 5 6 8 11 11 9 7 8 9 11 11 11 9 10 9 9 10 10 10 10 11 11 9 10 11 10 10 10 9 8 8 8 6 7 7 7 6 8 7 7 9 8 8 8 8 7 7 7 6 5 5 5 5
2 2 2 3 5 5 3 2 0 1 2 3 5 6 8 9 9 7 7 9 10 11 11 10 9 9 10 10 11 10 11 10 11 11 11 11 10 9 9 9 9 8 8 7 8 7 7 7 8 8 8 8 8 8 8 8 6 6 6 6 5 5 5
4 3 4 3 4 5 4 2 2 2 1 3 4 4 4 6 6 7 7 9 9 9 9 9 10 9 9 9 10 10 11 11 11 11 11 10 9 9 9 9 9 9 9 7 8 8 8 8 9 8 6 7 8 8 5 5 6 6 6 5 6 5 6
3 3 4 4 4 4 4 4 3 2 2 3 4 5 5 5 6 7 7 6 5 7 9 9 9 10 11 10 10 11 11 10 9 9 9 9 9 9 9 9 10 9 8 8 8 6 7 7 7 7 7 7 7 6 4 5 6 5 6 6 6 5 5
2 2 4 5 5 5 5 4 4 4 3 3 4 5 6 7 6 7 8 8 7 7 7 8 10 10 11 11 11 11 10 10 9 9 9 9 9 10 9 9 9 9 9 9 8 7 6 7 7 6 7 7 6 5 5 6 5 7 10 8 4 4 4
2 2 2 3 3 5 5 6 5 4 4 4 4 4 5 6 6 7 8 8 7 7 7 7 9 10 11 12 12 11 10 9 9 9 9 10 10 9 9 9 8 8 7 7 7 7 6 6 7 7 6 7 6 6 5 4 2 4 6 7 7 4 3
3 4 3 4 5 5 5 7 7 7 7 6 5 5 4 4 5 6 8 8 8 7 5 7 8 10 11 11 11 11 11 10 10 9 10 9 10 9 9 8 8 8 7 7 8 7 6 7 7 7 6 5 5 4 3 2 6 7 6 3 2 3 1
5 5 3 4 5 5 5 6 6 7 7 7 5 5 5 5 4 6 6 7 8 7 7 8 9 9 10 10 10 11 10 10 10 10 10 10 10 9 8 8 7 8 8 9 8 6 6 7 7 6 4 3 4 3 3 3 8 6 5 5 6 6 3
5 5 5 4 5 6 6 5 6 6 7 7 6 5 5 5 6 6 6 7 6 7 8 8 9 9 10 10 10 10 10 10 10 10 10 10 9 8 8 8 9 8 8 7 6 6 5 3 4 3 2 2 4 4 4 4 8 6 4 3 5 6 4
5 4 5 6 7 7 7 7 8 8 8 7 6 5 5 5 5 5 6 5 6 7 8 8 9 9 10 10 10 10 9 10 10 10 9 9 8 8 9 9 8 7 5 4 3 4 5 5 5 4 4 5 4 4 5 5 11 7 5 2 4 7 6
4 5 6 5 6 7 7 8 8 8 9 7 7 7 5 6 6 6 7 6 7 6 7 8 9 10 9 10 10 9 9 9 9 6 3 5 6 6 8 8 8 7 5 5 4 5 5 5 5 6 6 5 5 5 6 6 12 8 8 7 2 8 4
5 6 6 6 6 8 7 8 8 8 7 7 7 7 7 7 7 7 8 8 7 7 7 8 10 10 10 10 8 8 8 8 9 8 8 7 3 7 9 7 6 7 6 7 7 7 6 5 4 4 5 6 6 7 5 5 9 10 11 10 9 2 3
4 4 5 6 7 7 7 7 6 6 7 9 8 7 7 7 7 8 9 8 8 8 9 9 10 9 9 9 9 9 8 9 9 8 9 11 12 9 2 2 1 6 8 10 9 8 6 6 7 6 6 7 6 5 6 6 8 11 12 11 10 6 4
3 4 5 6 6 8 8 6 7 8 8 8 10 9 8 8 8 8 10 9 9 9 10 10 9 8 9 8 7 7 9 10 10 9 9 7 6 7 8 8 6 5 6 7 7 9 9 8 8 7 7 8 8 11 9 6 8 12 13 13 11 8 7
3 3 5 5 6 5 6 8 9 8 8 8 9 9 9 9 8 9 9 10 9 10 11 11 8 7 7 8 8 8 8 9 10 9 9 10 10 9 8 5 7 10 10 9 9 8 7 7 7 9 6 7 6 6 6 8 7 9 13 13 14 15 11
5 5 6 5 6 7 6 6 5 7 8 7 8 8 7 7 8 10 10 10 9 12 11 10 8 7 7 7 8 8 7 7 9 12 12 13 12 10 10 10 10 10 10 10 8 9 8 9 9 10 9 6 5 6 6 7 8 9 13 13 13 15 16
5 5 3 4 5 5 5 5 6 7 7 8 9 8 7 7 8 10 11 11 12 13 11 10 9 7 7 8 9 9 9 10 10 12 12 12 12 11 11 10 10 11 11 10 10 10 9 8 8 8 7 6 5 5 6 10 13 8 11 13 13 13 12
4 3 4 4 5 5 5 5 6 6 7 7 8 8 8 8 10 10 10 12 13 12 10 10 9 9 9 9 9 10 10 10 12 11 10 13 14 13 12 11 12 12 11 12 11 11 11 9 8 8 8 7 6 5 5 6 8 11 9 11 13 14 13
2 3 4 4 3 4 4 4 5 6 7 7 7 7 7 7 9 8 7 8 8 7 6 7 8 8 9 9 9 10 9 9 11 12 11 11 11 13 15 13 13 12 11 11 12 11 11 8 8 8 8 8 6 5 4 4 5 9 11 9 11 12 14
1 2 3 4 4 4 3 4 5 6 6 6 8 7 8 8 9 8 9 9 7 2 6 8 8 8 9 8 9 10 9 6 7 11 12 12 13 12 12 13 13 12 10 11 10 11 11 8 7 8 7 7 6 4 3 3 3 3 7 10 9 10 11
1 3 3 4 4 5 4 4 4 5 6 7 8 9 8 8 7 9 9 8 7 6 5 3 5 8 8 7 7 9 10 10 7 5 9 10 8 11 10 13 12 12 10 10 10 10 10 9 8 7 7 6 5 4 3 2 3 3 3 3 6 6 8
1 3 4 4 3 3 4 4 4 6 7 9 9 9 8 9 8 8 8 9 8 8 8 8 8 8 6 6 6 5 8 13 11 11 10 9 10 11 10 9 9 11 10 10 11 10 8 8 8 8 5 4 4 3 2 2 2 1 2 2 3 3 3
1 3 3 2 2 3 4 4 5 6 7 8 8 8 8 8 9 9 9 8 8 8 10 11 10 9 10 10 9 8 6 7 19 19 13 11 10 12 12 10 10 10 9 9 10 11 9 7 7 6 6 6 4 4 3 2 2 3 3 3 2 3 3
1 1 2 4 3 3 4 5 6 6 6 7 7 7 8 9 9 9 10 9 8 8 11 12 12 11 13 11 11 11 9 11 11 12 13 12 12 11 10 10 10 10 8 8 6 7 9 8 7 6 4 4 4 4 4 2 2 1 2 1 2 3 4
1 2 3 2 2 4 5 7 6 6 6 7 7 7 8 10 10 10 10 9 8 9 11 11 12 13 12 11 10 9 10 11 11 11 12 12 12 14 15 18 17 10 8 9 13 16 12 10 7 5 5 6 2 2 1 3 2 1 1 1 2 3 2
3 2 3 2 4 6 6 5 5 6 8 7 7 7 9 9 9 9 10 9 8 8 11 12 11 10 10 10 10 10 10 10 10 10 11 11 11 10 13 12 15 21 19 18 15 15 16 15 13 9 5 5 4 3 7 5 3 4 5 6 7 5 5
2 2 2 2 3 4 4 4 6 7 6 6 7 8 8 8 9 9 8 9 9 8 10 11 11 11 10 10 10 11 9 9 10 9 10 9 9 10 12 12 14 14 17 18 17 16 15 13 12 11 10 9 6 4 4 6 7 8 10 10 10 10 10
Wind_Direction
212 207 201 198 197 197 195 194 189 189 189 191 191 189 188 185 185 183 187 186 193 194 191 188 192 189 195 195 188 186 191 189 190 194 194 200 202 195 193 195 194 205 199 200 212 208 219 201 203 209 204 207 210 212 218 220 231 237 229 220 215 226 239
207 210 204 199 199 198 199 195 191 189 191 192 192 190 189 189 184 186 190 189 193 193 189 190 191 195 194 195 185 183 188 192 191 195 192 201 207 208 204 199 201 207 205 213 211 215 207 210 200 207 210 209 216 213 214 214 219 223 223 220 221 235 223
217 211 210 207 201 200 198 196 195 194 192 193 192 191 192 191 188 190 188 188 194 196 191 191 193 193 191 186 184 193 191 185 188 191 188 193 200 206 206 205 208 205 210 209 209 211 204 208 205 210 209 210 220 214 211 211 211 209 212 209 212 223 224
216 214 207 212 228 205 203 201 199 198 197 194 194 193 193 195 192 192 189 188 190 192 194 197 194 192 189 187 191 193 195 195 194 192 191 192 200 201 201 210 212 213 206 208 207 204 209 202 206 209 217 213 222 222 212 215 214 209 211 202 210 215 221
253 242 227 199 199 203 214 225 237 225 220 217 211 201 196 195 191 189 194 194 192 194 198 195 194 193 192 190 194 195 199 197 197 197 192 194 196 193 201 209 204 204 212 209 201 202 210 210 207 207 215 217 227 226 224 221 222 218 221 211 235 232 247
278 210 182 145 147 150 144 126 103 85 67 45 1 330 284 217 195 195 195 193 196 202 199 196 196 193 195 196 197 201 196 204 201 196 195 189 186 191 202 210 205 207 205 207 199 203 203 209 215 213 214 216 226 235 239 249 276 258 204 192 205 213 246
311 298 192 186 191 170 142 141 145 149 149 150 184 200 255 264 224 207 197 198 196 195 196 198 200 196 201 194 200 200 201 203 199 202 192 188 189 197 206 207 208 209 211 189 209 201 205 210 217 216 213 214 209 213 208 191 185 182 185 198 206 204 214
312 311 278 255 224 158 154 158 162 164 160 154 195 201 197 199 226 231 211 204 199 199 199 199 201 200 201 199 199 203 206 206 202 201 193 195 193 198 200 203 205 207 201 207 215 206 216 220 214 199 196 196 196 196 190 183 188 186 182 192 209 214 209
303 290 290 299 300 272 212 176 173 170 163 168 192 203 208 203 194 211 221 213 208 201 205 201 203 201 198 199 201 206 209 205 202 196 196 200 198 202 201 201 201 196 207 215 217 210 218 209 199 197 195 199 193 195 196 198 196 189 195 200 202 220 242
336 338 338 345 334 318 306 294 226 173 172 183 191 201 211 214 207 199 205 208 210 213 209 204 203 200 199 201 206 206 205 206 204 198 199 203 205 205 204 200 201 194 206 215 212 216 216 194 188 192 196 203 208 207 205 193 198 198 200 214 213 218 221
330 332 338 345 344 334 328 345 263 245 197 187 196 201 206 212 208 201 200 195 203 218 212 209 202 197 201 202 205 204 204 208 204 203 204 208 208 210 204 204 204 200 207 206 215 216 197 196 197 201 204 212 214 210 206 208 204 202 209 200 210 217 220
325 340 336 325 320 328 336 32 344 308 289 265 217 203 212 213 214 210 203 201 196 204 206 208 203 202 200 202 204 205 206 207 205 208 208 208 209 210 208 206 207 210 210 205 217 216 195 200 206 205 214 218 218 215 217 213 206 200 196 192 203 213 219
319 329 334 330 311 308 312 341 23 244 277 275 287 259 238 215 213 214 208 207 203 201 198 198 200 204 203 201 204 206 209 206 208 210 211 210 210 209 209 210 210 211 216 212 217 213 186 204 212 218 214 220 219 220 219 217 208 207 204 205 204 213 218
355 354 5 355 358 347 339 325 333 347 217 242 268 286 265 252 240 227 217 211 206 202 200 195 192 199 206 205 206 208 211 210 209 210 212 211 210 209 210 212 213 216 219 216 219 216 197 200 214 221 211 219 220 227 217 210 211 215 213 211 208 206 216
15 355 345 8 344 334 323 324 318 268 270 239 216 220 242 249 243 242 237 234 225 205 204 196 193 195 200 204 209 211 210 210 210 209 209 211 210 211 211 212 214 216 217 218 222 216 200 204 213 217 215 223 220 215 205 206 213 209 205 208 211 210 221
14 25 5 348 347 329 310 301 298 303 290 266 244 232 218 219 231 236 237 228 222 220 213 192 199 197 197 203 210 215 211 207 206 206 204 206 209 211 212 214 215 217 219 222 224 223 209 213 215 214 216 216 215 205 204 216 217 218 212 203 201 202 222
316 313 311 315 328 323 318 319 326 321 314 301 285 264 250 238 223 222 236 235 229 228 217 200 205 205 202 204 206 210 210 208 208 203 202 206 209 211 212 216 218 221 223 226 227 221 215 211 213 212 213 214 213 209 212 224 247 257 226 220 216 212 205
288 278 291 306 313 318 324 329 326 327 324 320 313 296 268 258 246 232 229 224 224 226 222 218 212 210 211 211 205 203 204 208 207 204 206 204 208 209 212 214 215 219 218 220 221 219 208 213 217 215 211 209 213 210 207 162 34 28 33 25 23 2 3
264 274 301 309 306 306 312 309 313 311 313 311 311 309 295 269 256 248 247 239 227 209 208 215 219 215 215 213 210 205 200 202 204 207 206 205 206 208 208 212 215 218 219 219 219 205 204 215 211 216 207 194 176 139 73 77 27 21 32 48 62 66 96
278 299 317 290 282 291 292 295 296 293 292 295 292 292 292 290 267 254 248 245 242 224 222 215 216 217 220 216 213 210 202 197 200 207 211 207 203 201 204 206 215 218 220 221 216 207 198 176 180 162 134 108 96 80 62 54 7 0 16 65 96 117 153
301 295 293 298 302 305 300 299 295 296 301 298 305 310 315 307 298 284 266 248 242 229 231 227 223 217 215 214 213 207 202 197 196 205 213 212 205 196 203 204 210 215 210 205 187 166 162 161 135 82 83 86 95 88 63 38 6 357 9 43 134 148 163
254 275 284 281 289 286 286 290 291 295 297 303 311 316 314 306 312 308 292 276 250 235 224 230 230 226 216 216 210 202 197 195 195 177 82 18 334 258 217 205 200 181 139 114 103 98 95 65 85 104 92 73 67 71 54 28 13 1 12 15 32 168 166
229 248 264 277 280 288 294 293 295 303 313 318 323 322 318 315 313 301 295 288 273 250 234 221 229 230 219 215 205 195 181 179 169 151 138 121 83 320 289 224 165 142 135 122 124 113 81 87 80 83 89 84 81 86 74 44 21 27 32 28 17 55 141
253 264 276 287 290 291 290 291 309 325 326 321 319 315 308 307 302 299 291 284 277 263 249 236 227 223 225 221 206 191 173 178 177 181 184 182 182 168 165 348 125 151 154 141 134 113 116 113 92 74 75 82 81 88 92 71 38 44 47 45 38 40 90
219 262 268 270 276 284 290 322 331 323 325 322 317 319 314 305 297 288 283 278 276 270 262 247 235 223 216 217 218 205 186 182 182 176 162 168 156 141 130 130 116 86 78 80 95 109 113 104 100 93 74 82 88 85 83 76 52 47 55 58 59 64 71
232 270 278 274 272 287 325 334 332 327 323 320 314 316 310 305 296 284 274 267 262 263 258 255 246 227 215 195 183 186 189 189 182 163 148 148 155 156 141 113 109 117 114 106 109 110 106 105 99 95 84 81 75 76 74 77 63 51 57 61 73 84 84
225 223 253 293 319 334 340 329 320 316 317 317 314 308 302 297 294 286 272 262 256 249 251 253 249 233 207 186 175 171 174 175 164 153 155 159 159 144 133 136 136 131 123 121 118 115 113 109 108 102 98 92 89 95 83 80 78 59 59 58 66 87 98
255 278 325 354 340 346 326 326 329 324 324 321 316 313 305 297 287 282 273 269 260 255 248 236 229 203 180 178 175 175 169 162 158 156 154 151 146 149 140 135 130 129 126 123 123 116 108 103 98 97 96 91 85 79 79 85 87 84 69 69 66 70 90
256 298 325 333 337 337 345 333 327 325 322 321 318 314 311 302 297 286 276 265 259 261 246 225 209 184 177 177 174 174 169 164 161 157 155 157 152 136 129 134 129 129 127 125 120 114 110 102 100 97 96 91 81 71 69 75 86 89 84 79 83 85 83
342 350 339 321 316 333 354 336 329 328 329 323 319 317 316 312 308 305 305 301 302 257 229 199 176 169 168 176 176 171 162 167 169 159 152 148 138 133 133 135 131 128 129 129 125 120 114 113 112 107 103 99 85 74 63 55 83 97 97 95 96 93 96
358 307 298 314 324 347 359 344 341 332 329 331 330 332 333 330 329 338 351 336 327 195 156 157 161 161 166 172 174 167 164 151 153 150 146 144 136 130 132 127 126 120 125 122 119 116 112 113 109 107 108 104 111 115 90 62 62 72 110 115 108 103 102
357 321 343 7 357 356 355 344 350 352 344 348 349 349 345 343 350 5 352 353 13 26 52 87 153 159 158 153 156 156 131 119 84 52 105 113 117 125 128 129 125 120 123 115 109 107 110 114 110 108 110 114 116 111 112 91 76 58 40 73 99 94 86
322 340 8 17 338 3 11 11 9 8 8 8 358 356 352 353 4 9 4 18 18 31 44 52 55 59 63 80 73 77 126 122 120 113 101 104 114 109 101 94 101 106 105 104 105 104 105 107 113 113 111 112 106 94 78 75 45 43 92 52 72 56 58
328 6 358 352 8 30 35 30 29 20 22 21 4 359 2 9 12 10 13 17 20 47 62 54 55 60 64 67 71 69 54 89 119 116 107 100 93 95 94 91 94 91 90 102 108 113 102 102 109 111 115 110 103 99 99 111 92 46 27 35 48 62 64
329 345 19 40 23 30 39 34 41 37 27 23 8 6 14 18 16 11 18 21 21 42 68 68 63 65 71 65 66 65 64 67 44 63 85 81 72 59 68 87 75 78 77 72 88 98 117 126 105 96 93 103 107 135 131 86 78 40 357 47 55 109 117
161 81 52 32 28 23 32 52 55 42 33 26 14 14 27 26 21 19 19 23 26 45 68 72 79 70 64 76 75 77 79 80 81 77 77 80 82 86 67 50 60 63 86 81 68 72 70 79 94 108 121 101 52 332 106 122 131 177 100 137 113 107 82
148 97 82 63 33 23 44 59 61 47 35 21 21 31 39 38 26 25 22 22 22 45 72 76 70 73 77 73 71 74 76 77 80 81 85 87 88 83 89 85 59 49 58 71 71 74 71 74 74 73 68 106 122 75 75 98 101 71 63 75 86 94 97
158 132 77 58 41 37 58 50 57 55 38 29 30 37 43 43 30 26 26 28 30 44 66 74 81 81 77 77 82 71 67 77 81 82 87 86 90 92 102 101 94 70 44 54 64 62 62 60 58 57 58 47 59 111 108 65 60 67 81 90 95 97 94